User: anonymous   Login
Location: *
(33.8649°S, 62.1526°E)
Time: 04:03:37
(UTC+00:00)
Language:

Cosmos 44 Rocket - Orbit

View from above orbital plane
View from above orbital plane
View from above satellite
View from above satellite

Ground track
Ground track

The orbit data is extracted from the following two-line orbital elements,

1   877U 64053B   21107.83438409 -.00000077  00000-0  96021-5 0  9998
2   877  65.0769 159.4452 0083193 278.4467  80.7209 14.59425262  5909
Epoch (UTC): 17 April 2021 20:01:30
Eccentricity: 0.0083193
inclination: 65.0769°
perigee height: 636 km
apogee height: 754 km
right ascension of ascending node: 159.4452°
argument of perigee: 278.4467°
revolutions per day: 14.59425262
mean anomaly at epoch: 80.7209°
orbit number at epoch: 590

The dashed part of the orbit path shows where the satellite is in the earth's shadow,  

DLR